Registrering Status Plassering
LN-FAW Operativ Kjeller 

Søk
Kontakt informasjon

Follo flyklubb.
Postboks 226, N-1401 Ski
Epost: post@follo-flyklubb.no

Tel: 47 25 54 90
Du er her: Hovedside

Velkommen til Follo flyklubb

 

Follo flyklubb er en flyklubb med primærbase på Ski flyplass, og sekundærbase (vinterbase) på Rakkestad flyplass. Disse websidene er ment som en informasjonskanal til flyklubbens medlemmer, og andre som måtte være interessert i Follo flyklubbs virksomhet. Har du kommentarer eller bidrag du ønsker å dele med flyklubben, send oss en melding her.

Har noen av flyklubbens medlemmer forslag til turer, aktiviteter eller kurs- og infokvelder dere ønsker at vi deltar på eller avholder, så gi beskjed til styret via epost.

 

Før flyturen: Ta en sjekk på datoer i sertifikatene dine. Husk at det er forskjell på gyldighetsdato for PPL-sertifikatet og klasserettighet, som f.eks. SEP. Her er noen nyttige spørsmål, og litt om rettigheter her.

ENGM 141920Z VRB01KT 9999 6000W SCT002 OVC005 M12/M13 Q1034 TEMPO 3000 BCFG BKN002
ENTO 141920Z 36009KT 9999 OVC005 M08/M09 Q1035
ENRY 141920Z AUTO 01006KT 9999NDV OVC006/// M08/M10 Q1035
ENSN 090850Z 20010G22KT 150V240 CAVOK 07/03 Q1000
ENCN 141920Z 05014KT 9999 -SHSN FEW011 SCT034 BKN051 M01/M03 Q1032
ENZV 141920Z 13009KT 9999 FEW045 BKN057 02/M04 Q1030 NOSIG
ENFL 141920Z 12011KT 9999 FEW020 03/M06 Q1029
ENFG 220850Z 19007KT CAVOK 06/M03 Q1014
ENNO 141750Z VRB02KT 9999 BKN049 M10/M12 Q1036
 

Leie av LN-FAW

Follo flyklubbs medlemmer har anledning til å leie LN-FAW, booking skjer via MyWebLog. Husk å loggføre turen etter turen.